When you browse on this site, cookies collect data to enhance your experience and personalize the content and advertising you see.
Visit our Privacy Policy to learn more. By continuing to use the site, you agree to this use of cookies and data.
  • In Deutschland
  • Länderverzeichnis
  • Für 7 Tage
  • Wassertemperatur
  • Wetterkarte
  • Widgets
  • user-avatar
    Anmelden

    Stündliche Wetter Kuligow

    Heute, 31 Mai, Sonntag

    Zeit Temperatur Niederschläge Wind Luftdruck Luftfeuchtigkeit
    00:00 +11°C° 1.7 mm 9 m/S 750 mmHg 88%
    01:00 +11°C° 1.7 mm 8 m/S 750 mmHg 86%
    02:00 +11°C° 0 mm 8 m/S 750 mmHg 84%
    03:00 +11°C° 0 mm 8 m/S 750 mmHg 82%
    04:00 +11°C° 0 mm 8 m/S 749 mmHg 80%
    05:00 +11°C° 0 mm 8 m/S 750 mmHg 78%
    06:00 +11°C° 0 mm 8 m/S 750 mmHg 76%
    07:00 +12°C° 0 mm 8 m/S 751 mmHg 74%
    08:00 +13°C° 0 mm 8 m/S 751 mmHg 72%
    09:00 +15°C° 0 mm 8 m/S 751 mmHg 69%
    10:00 +16°C° 0 mm 8 m/S 752 mmHg 67%
    11:00 +16°C° 0 mm 8 m/S 752 mmHg 67%
    12:00 +16°C° 0 mm 8 m/S 753 mmHg 67%
    13:00 +17°C° 0 mm 8 m/S 753 mmHg 67%
    14:00 +17°C° 0 mm 8 m/S 753 mmHg 67%
    15:00 +17°C° 0 mm 7 m/S 754 mmHg 67%
    16:00 +17°C° 0 mm 7 m/S 754 mmHg 67%
    17:00 +17°C° 0 mm 7 m/S 754 mmHg 69%
    18:00 +16°C° 0 mm 6 m/S 755 mmHg 70%
    19:00 +15°C° 0 mm 6 m/S 755 mmHg 72%
    20:00 +14°C° 0 mm 6 m/S 755 mmHg 70%
    21:00 +13°C° 0 mm 5 m/S 756 mmHg 68%
    22:00 +12°C° 0 mm 5 m/S 756 mmHg 65%
    23:00 +10°C° 0 mm 5 m/S 757 mmHg 66%

    Morgen, 1 Juni, Montag

    Zeit Temperatur Niederschläge Wind Luftdruck Luftfeuchtigkeit
    00:00 +10°C° 0 mm 5 m/S 757 mmHg 67%
    01:00 +10°C° 0 mm 4 m/S 757 mmHg 67%
    02:00 +8°C° 0 mm 4 m/S 757 mmHg 70%
    03:00 +8°C° 0 mm 4 m/S 757 mmHg 72%
    04:00 +7°C° 0 mm 4 m/S 757 mmHg 74%
    05:00 +8°C° 0 mm 5 m/S 758 mmHg 71%
    06:00 +10°C° 0 mm 5 m/S 758 mmHg 68%
    07:00 +12°C° 0 mm 5 m/S 758 mmHg 65%
    08:00 +13°C° 0 mm 6 m/S 758 mmHg 62%
    09:00 +14°C° 0 mm 6 m/S 759 mmHg 59%
    10:00 +15°C° 0 mm 6 m/S 759 mmHg 56%
    11:00 +15°C° 0 mm 6 m/S 759 mmHg 54%
    12:00 +16°C° 0 mm 6 m/S 759 mmHg 52%
    13:00 +16°C° 0 mm 7 m/S 759 mmHg 51%
    14:00 +16°C° 0 mm 6 m/S 758 mmHg 51%
    15:00 +16°C° 0 mm 6 m/S 758 mmHg 52%
    16:00 +16°C° 0 mm 6 m/S 758 mmHg 53%
    17:00 +15°C° 0 mm 5 m/S 758 mmHg 60%
    18:00 +14°C° 0 mm 5 m/S 758 mmHg 67%
    19:00 +13°C° 0 mm 4 m/S 758 mmHg 74%
    20:00 +12°C° 0 mm 4 m/S 758 mmHg 78%
    21:00 +11°C° 0 mm 4 m/S 758 mmHg 81%
    22:00 +10°C° 0 mm 3 m/S 758 mmHg 85%
    23:00 +10°C° 0.2 mm 3 m/S 757 mmHg 87%

    übermorgen, 2 Juni, Dienstag

    Zeit Temperatur Niederschläge Wind Luftdruck Luftfeuchtigkeit
    00:00 +10°C° 0.2 mm 3 m/S 757 mmHg 90%
    01:00 +10°C° 0.2 mm 2 m/S 757 mmHg 92%
    02:00 +10°C° 0.2 mm 2 m/S 757 mmHg 93%
    03:00 +9°C° 0.2 mm 2 m/S 756 mmHg 93%
    04:00 +9°C° 0.2 mm 2 m/S 756 mmHg 94%
    05:00 +10°C° 0.1 mm 3 m/S 756 mmHg 89%
    06:00 +11°C° 0.1 mm 3 m/S 756 mmHg 83%
    07:00 +13°C° 0.1 mm 4 m/S 756 mmHg 77%
    08:00 +13°C° 0.2 mm 4 m/S 755 mmHg 73%
    09:00 +14°C° 0.2 mm 4 m/S 755 mmHg 68%
    10:00 +15°C° 0.2 mm 4 m/S 755 mmHg 63%
    11:00 +17°C° 0.2 mm 4 m/S 754 mmHg 60%
    12:00 +17°C° 0.2 mm 4 m/S 754 mmHg 57%
    13:00 +18°C° 0.2 mm 4 m/S 753 mmHg 54%
    14:00 +18°C° 0.1 mm 4 m/S 753 mmHg 54%
    15:00 +18°C° 0.1 mm 4 m/S 752 mmHg 53%
    16:00 +18°C° 0.1 mm 4 m/S 752 mmHg 53%
    17:00 +17°C° 0 mm 3 m/S 752 mmHg 59%
    18:00 +16°C° 0 mm 3 m/S 752 mmHg 65%
    19:00 +13°C° 0 mm 3 m/S 751 mmHg 71%
    20:00 +13°C° 0 mm 2 m/S 751 mmHg 73%
    21:00 +12°C° 0 mm 2 m/S 751 mmHg 76%
    22:00 +10°C° 0 mm 2 m/S 751 mmHg 78%
    23:00 +9°C° 0 mm 2 m/S 751 mmHg 82%

    3 Juni, Mittwoch

    Zeit Temperatur Niederschläge Wind Luftdruck Luftfeuchtigkeit
    00:00 +9°C° 0 mm 3 m/S 750 mmHg 85%
    01:00 +8°C° 0 mm 3 m/S 750 mmHg 88%
    02:00 +8°C° 0 mm 3 m/S 750 mmHg 88%
    03:00 +7°C° 0 mm 3 m/S 750 mmHg 88%
    04:00 +7°C° 0 mm 3 m/S 749 mmHg 88%
    05:00 +9°C° 0 mm 3 m/S 749 mmHg 82%
    06:00 +11°C° 0 mm 4 m/S 749 mmHg 75%
    07:00 +12°C° 0 mm 4 m/S 749 mmHg 69%
    08:00 +13°C° 0 mm 4 m/S 749 mmHg 67%
    09:00 +13°C° 0 mm 5 m/S 748 mmHg 65%
    10:00 +14°C° 0 mm 5 m/S 748 mmHg 63%
    11:00 +13°C° 0 mm 5 m/S 748 mmHg 67%
    12:00 +13°C° 0 mm 5 m/S 748 mmHg 71%
    13:00 +12°C° 0 mm 5 m/S 748 mmHg 75%
    14:00 +12°C° 0.1 mm 4 m/S 748 mmHg 78%
    15:00 +12°C° 0.1 mm 4 m/S 748 mmHg 80%
    16:00 +12°C° 0.1 mm 4 m/S 748 mmHg 83%
    17:00 +11°C° 0 mm 4 m/S 748 mmHg 85%
    18:00 +11°C° 0 mm 3 m/S 747 mmHg 87%
    19:00 +11°C° 0 mm 3 m/S 747 mmHg 89%
    20:00 +10°C° 0 mm 3 m/S 748 mmHg 90%
    21:00 +10°C° 0 mm 3 m/S 748 mmHg 90%
    22:00 +10°C° 0 mm 3 m/S 748 mmHg 91%
    23:00 +9°C° 0 mm 3 m/S 748 mmHg 93%

    4 Juni, Donnerstag

    Zeit Temperatur Niederschläge Wind Luftdruck Luftfeuchtigkeit
    00:00 +9°C° 0 mm 3 m/S 748 mmHg 94%
    01:00 +8°C° 0 mm 3 m/S 748 mmHg 96%
    02:00 +8°C° 0 mm 3 m/S 748 mmHg 96%
    03:00 +8°C° 0 mm 3 m/S 748 mmHg 96%
    04:00 +7°C° 0 mm 3 m/S 748 mmHg 97%
    05:00 +9°C° 0 mm 3 m/S 748 mmHg 93%
    06:00 +10°C° 0 mm 3 m/S 748 mmHg 89%
    07:00 +12°C° 0 mm 3 m/S 748 mmHg 86%
    08:00 +13°C° 0.2 mm 3 m/S 748 mmHg 81%
    09:00 +14°C° 0.2 mm 3 m/S 748 mmHg 76%
    10:00 +17°C° 0.2 mm 4 m/S 748 mmHg 71%
    11:00 +17°C° 0.5 mm 4 m/S 748 mmHg 69%
    12:00 +18°C° 0.5 mm 4 m/S 748 mmHg 67%
    13:00 +19°C° 0.5 mm 5 m/S 747 mmHg 65%
    14:00 +19°C° 0.3 mm 4 m/S 747 mmHg 65%
    15:00 +19°C° 0.3 mm 4 m/S 747 mmHg 64%
    16:00 +19°C° 0.3 mm 4 m/S 747 mmHg 64%
    17:00 +18°C° 0.3 mm 4 m/S 747 mmHg 69%
    18:00 +17°C° 0.3 mm 3 m/S 747 mmHg 74%
    19:00 +16°C° 0.3 mm 2 m/S 747 mmHg 79%
    20:00 +15°C° 0.1 mm 2 m/S 747 mmHg 82%
    21:00 +14°C° 0.1 mm 2 m/S 748 mmHg 85%
    22:00 +13°C° 0.1 mm 1 m/S 748 mmHg 88%
    23:00 +12°C° 0 mm 1 m/S 748 mmHg 89%

    5 Juni, Freitag

    Zeit Temperatur Niederschläge Wind Luftdruck Luftfeuchtigkeit
    00:00 +12°C° 0 mm 1 m/S 748 mmHg 90%
    01:00 +12°C° 0 mm 1 m/S 748 mmHg 91%
    02:00 +11°C° 0 mm 1 m/S 747 mmHg 91%
    03:00 +11°C° 0 mm 1 m/S 747 mmHg 91%
    04:00 +11°C° 0 mm 1 m/S 747 mmHg 91%
    05:00 +13°C° 0 mm 1 m/S 747 mmHg 86%
    06:00 +15°C° 0 mm 2 m/S 747 mmHg 80%
    07:00 +16°C° 0 mm 2 m/S 747 mmHg 75%
    08:00 +18°C° 0 mm 2 m/S 747 mmHg 67%
    09:00 +19°C° 0 mm 2 m/S 747 mmHg 60%
    10:00 +21°C° 0 mm 3 m/S 747 mmHg 52%
    11:00 +20°C° 0.1 mm 3 m/S 747 mmHg 55%
    12:00 +20°C° 0.1 mm 3 m/S 747 mmHg 58%
    13:00 +20°C° 0.1 mm 4 m/S 747 mmHg 62%
    14:00 +20°C° 0.1 mm 3 m/S 746 mmHg 63%
    15:00 +20°C° 0.1 mm 3 m/S 746 mmHg 65%
    16:00 +20°C° 0.1 mm 3 m/S 745 mmHg 66%
    17:00 +19°C° 0 mm 3 m/S 745 mmHg 69%
    18:00 +19°C° 0 mm 3 m/S 745 mmHg 72%
    19:00 +18°C° 0 mm 3 m/S 744 mmHg 75%
    20:00 +18°C° 0.1 mm 4 m/S 744 mmHg 75%
    21:00 +17°C° 0.1 mm 4 m/S 744 mmHg 75%
    22:00 +17°C° 0.1 mm 4 m/S 744 mmHg 76%
    23:00 +17°C° 0 mm 4 m/S 744 mmHg 77%
    Mehr zeigen